Regional Weather Roundup
Issued by NWS

Home | Current Version | Previous Version | Text Only | Print | Product List | Glossary On
Versions: 1 2 3 4 5 6 7 8 9 10 11 12 13 14 15 16 17 18 19 20 21 22 23 24 25 26 27 28 29 30 31 32 33 34 35 36 37 38 39 40 41 42 43 44 45 46 47 48 49 50
000
ASUS44 KFWD 211115
RWRTX
NORTH TEXAS HOURLY WEATHER ROUNDUP
NATIONAL WEATHER SERVICE FORT WORTH TX
600 AM CDT SAT APR 21 2018

NOTE: "FAIR" INDICATES FEW OR NO CLOUDS BELOW 12,000 FEET WITH NO
SIGNIFICANT WEATHER AND/OR OBSTRUCTIONS TO VISIBILITY.

TXZ118-119-211200-
DALLAS/FORT WORTH METROPLEX

CITY           SKY/WX    TMP DP  RH WIND       PRES   REMARKS
DFW AIRPORT    MOCLDY    54  48  80 SE12      29.99F
DALLAS LOVE    FAIR      56  47  71 SE14      30.02F
FTW MEACHAM    FAIR      58  48  69 SE16G24   29.98F
DAL-EXECUTIVE  FAIR      54  46  74 SE10      30.02F
FTW-ALLIANCE   FAIR      56  47  71 SE16      29.98F
FTW-NAS-JRB    CLOUDY    58  46  64 SE12G20   29.98F
FTW-SPINKS     FAIR      54  46  74 SE10      30.00F
ARLINGTON      FAIR      55  48  77 E15       29.99F
GRAND PRAIRIE  FAIR      55  46  72 E13       30.02F
ADDISON        PTCLDY    55  46  71 E14G20    30.03F
MESQUITE       CLOUDY    53  46  76 E8        30.05F
LANCASTER      MOCLDY    53  46  76 E5        30.05F
$$

TXZ091>094-102>105-117-120-121-131>134-211200-
NORTH CENTRAL TEXAS

CITY           SKY/WX    TMP DP  RH WIND       PRES   REMARKS
SHRMAN/DENISON FAIR      54  45  71 SE18      30.00F
GAINESVILLE    FAIR      54  46  74 SE13      30.00F
BOWIE          CLOUDY    56  46  68 SE14G23   29.94F
BRIDGEPORT     CLOUDY    57  46  66 SE14G20   29.98F
DECATUR        MOCLDY    56  46  68 SE8G17    29.97F
DENTON         FAIR      56  47  71 SE14G21   29.99F
MCKINNEY       FAIR      53  48  83 SE8       30.04F
BONHAM         CLOUDY    53  43  69 SE13      30.07F
GREENVILLE     CLOUDY    52  46  82 E5        30.08F
ROCKWALL       CLOUDY    53  47  79 MISG      30.06F
TERRELL        CLOUDY    53  46  77 E7        30.08F
WAXAHACHIE     CLOUDY    53  48  84 E5        30.04F
CLEBURNE       FAIR      55  48  76 SE16      29.99F
GRANBURY       CLOUDY    58  48  70 SE14      29.99R
$$

TXZ083>090-098>101-113>116-127>130-139>142-154-155-211200-
WESTERN NORTH TEXAS

CITY           SKY/WX    TMP DP  RH WIND       PRES   REMARKS
WICHITA FALLS  RAIN      52  50  93 CALM      29.98S FOG
WF-KICKAPOO    TSTM      52  51  97 E7        29.99F
VERNON         CLOUDY    56  50  79 E6        29.96S
ABILENE        CLOUDY    56  51  84 S18       29.90F
ABILENE-DYESS  CLOUDY    56  49  76 SE20G29   29.89F
GRAHAM           N/A     53  32  45 SE12      29.93S
BRECKENRIDGE   CLOUDY    57  49  74 S10       29.94R
CISCO          CLOUDY    54  50  87 SE16G24   29.93F
EASTLAND       CLOUDY    54  50  87 S12G20    29.94S
RANGER         CLOUDY    54  50  89 S14       29.95S
MINERAL WELLS  CLOUDY    56  47  71 SE15      29.94F
STEPHENVILLE   CLOUDY    54  50  87 S9G16     29.98F
COMANCHE       CLOUDY    54  54 100 SE13      29.96F
BROWNWOOD      CLOUDY    55  52  88 SE9G16    29.95F
COLEMAN        CLOUDY    55  51  86 S13       29.94F
BRADY          CLOUDY    54  54 100 SE10G17   29.96F FOG
$$

TXZ143>147-156>162-174-175-211200-
CENTRAL TEXAS

CITY           SKY/WX    TMP DP  RH WIND       PRES   REMARKS
WACO           CLOUDY    56  49  77 E3        30.03F
WACO-MCGREGOR  CLOUDY    56  51  84 E5        30.04S
HILLSBORO      CLOUDY    56  50  80 E12       30.02F
CORSICANA      CLOUDY    55  49  80 NE5       30.07F
MEXIA          CLOUDY    54  48  81 NE5       30.04F
HEARNE         CLOUDY    58  52  79 E5        30.03S
CAMERON        CLOUDY    58  53  82 CALM      30.03S
TEMPLE         LGT RAIN  55  53  93 NE5       30.03F
KILLEEN        CLOUDY    55  52  88 E7        30.02F FOG
KILLEEN-SKYLRK CLOUDY    56  53  90 E7        30.02F
FORT HOOD      CLOUDY    54  53  95 E7        29.99S
GATESVILLE     MOCLDY    55  50  82 VRB5      30.03F
HAMILTON       CLOUDY    54  54 100 SE14      29.99F FOG
LAMPASAS       DRIZZLE   54  53  98 E6        30.00R
$$

TXZ095>097-106>112-122>126-135>138-148>153-164>167-211200-
EAST TEXAS

CITY           SKY/WX    TMP DP  RH WIND       PRES   REMARKS
PARIS          MOCLDY    51  41  68 E9        30.10F
SULPHUR SPRNGS CLOUDY    51  45  77 E5        30.12R
MOUNT PLEASANT FAIR      49  44  81 NE3       30.12S
GILMER         CLOUDY    51  43  74 CALM      30.11R
MINEOLA        CLOUDY    48  46  93 CALM      30.09S
TYLER          MOCLDY    51  46  83 NE3       30.08R
LONGVIEW       FAIR      51  46  83 E3        30.09R
MARSHALL       FAIR      51  43  74 CALM      30.12R
ATHENS         CLOUDY    52  46  82 CALM      30.07R
PALESTINE      FAIR      54  48  80 E7        30.07F
JACKSONVILLE   MOCLDY    52  48  86 E5        30.09R
HENDERSON      MOCLDY    51  47  84 CALM      30.11R
CENTER         FAIR      51  48  90 CALM      30.09R
NACOGDOCHES      N/A     54  46  74 E5        30.08R
LUFKIN         CLOUDY    56  48  74 E6        30.06S
$$

SUPPLEMENTAL OBSERVATIONS (NWS FORT WORTH AREA)

CITY           SKY/WX    TMP DP  RH WIND       PRES   REMARKS
DENISON DAM      N/A     54  43  66 SE14        N/A
CADDO GRASSLND   N/A     54  41  62 SE5         N/A
LBJ GRASSLAND    N/A     55  45  67 SE14        N/A
POSSUM KINGDOM   N/A     54  48  82 SE12        N/A
GRANBURY         N/A     57  48  72 SE15        N/A
COMANCHE         N/A     54  50  87 SE14        N/A
MCGREGOR         N/A     55  50  82 NE3         N/A
TEMPLE           N/A     55  50  82 NE3         N/A
LAKE LIMESTONE   N/A     55  48  76 NE3         N/A
ATHENS           N/A     52  48  87 CALM        N/A
PALESTINE        N/A     48  46  93 CALM        N/A
$$

SUPPLEMENTAL OBSERVATIONS (NWS NORMAN AREA)

CITY           SKY/WX    TMP DP  RH WIND       PRES   REMARKS
GOODLETT         N/A     56  46  69 E9        29.93S
ODELL            N/A     52  50  91 E13       29.97S
CROWELL          N/A     58  49  72 SE13      29.95R
KNOX CITY        N/A     57  49  74 SE8       29.93S
SEYMOUR          N/A     54  49  84 SE9       29.95S
MILLERS CREEK    N/A     55  50  82 SE6         N/A
$$

SUPPLEMENTAL OBSERVATIONS (NWS SAN ANGELO AREA)

CITY           SKY/WX    TMP DP  RH WIND       PRES   REMARKS
WEINERT          N/A     56  50  78 SE10      29.94R
HASKELL          N/A     56  50  79 SE7       29.93R
THROCKMORTON     N/A     53  51  94 SE8       29.95S
STAMFORD         N/A     57  52  85 SE10      29.95S
CLYDE            N/A     54  49  83 SE14      29.93R
HAMBY            N/A     57  48  72 SE9G17      N/A
IVIE RESERVOIR   N/A     55  54  94 SE13        N/A
COLORADO BEND    N/A     55  54  94 E6          N/A
$$

SUPPLEMENTAL OBSERVATIONS (NWS SHREVEPORT AREA)

CITY           SKY/WX    TMP DP  RH WIND       PRES   REMARKS
TEXARKANA        N/A     46  45  93 CALM        N/A
LINDEN           N/A     48  41  76 NE1         N/A
CADDO LAKE       N/A     45  43  93 CALM        N/A
LUFKIN           N/A     55  46  71 MISG        N/A
N SABINE NF      N/A     54  50  87 MISG        N/A
$$

SUPPLEMENTAL OBSERVATIONS ARE A COLLECTION OF AUTOMATED INSTRUMENTS
THAT ARE MAINTAINED BY A VARIETY OF FEDERAL AND STATE AGENCIES.
CERTAIN ELEMENTS...SUCH AS HUMIDITY VALUES AND SUSTAINED WIND
SPEEDS...MAY BE APPROXIMATED.




USA.gov is the U.S. government's official web portal to all federal, state and local government web resources and services.